Location: Sungai Bunut
(2.6333°N, 113.7333°E)
Time: 09:21:01
(UTC+00:00)

Transit 2A - Pass Details

Date: 09 December 2023
Orbit: 599 x 953 km, 66.7° (Epoch: 01 March)

Event Time Altitude Azimuth Distance (km) Brightness Sun altitude
Rises 18:14:53 0° 306° (NW) 2,988 - -55.1°
Reaches altitude 10° 18:18:04 10° 282° (WNW) 2,144 - -54.5°
Maximum altitude 18:20:46 15° 248° (WSW) 1,893 - -53.9°
Drops below altitude 10° 18:23:37 10° 214° (SW) 2,273 - -53.4°
Sets 18:27:11 0° 191° (SSW) 3,287 - -52.6°
